Other Surface Observations
Issued by NWS Tucson, AZ

Home | Current Version | Previous Version | Text Only | Print | Product List | Glossary On
Versions: 1 2 3 4 5 6 7 8 9 10 11 12 13 14 15 16 17 18 19 20 21 22 23 24 25 26 27 28 29 30 31 32 33 34 35 36 37 38 39 40 41 42 43 44 45 46 47 48 49 50
000
SXUS55 KTWC 280015
OSOTWC

WEATHER ROUNDUP FOR SOUTHEAST ARIZONA
NATIONAL WEATHER SERVICE TUCSON AZ
515 PM MST WED MAY 27 2015

AZZ504>506-514-280115-
LOCATION       SKY/WX    TMP DP  RH WIND       PRES   REMARKS
TUCSON         MOSUNNY   93  16   6 W14       29.90S
DAVIS-MONTHAN  PTSUNNY   93  17   6 W10       29.88S
CHILDRENS PARK N/A       93  20   7 W5                PIMA CO DEQ
ALVERNON/22ND  N/A      N/A N/A N/A N/A               PIMA CO DEQ
CHERRY/GLENN   N/A      N/A N/A N/A N/A               PIMA CO DEQ
TANGERINE      N/A       93 N/A N/A SW7               PIMA CO DEQ
CONTL RANCH    N/A       96  25   8 W8                PIMA CO DEQ
GRANT/1ST      N/A       94  17   6 SW3               PIMA CO DEQ
CRAYCROFT/22ND N/A      N/A N/A N/A N/A               PIMA CO DEQ
GOLFLINKS/KOLB N/A      N/A N/A N/A N/A               PIMA CO DEQ
AJO/12TH       N/A       94  13   5 S10               PIMA CO DEQ
SAGUARO EAST   N/A      N/A N/A N/A N/A               PIMA CO DEQ
FAIRGROUNDS    N/A       93 N/A N/A W13               PIMA CO DEQ
SAGUARO        N/A       94  13   5 W5G15             *SABINO CYN
SAN CARLOS     N/A       91  22   8 SW8G17            *SAN CARLOS
GREEN VALLEY   N/A       93  16   6 SW10              PIMA CO DEQ
HORSE CAMP CYN N/A       87  19   8 SW13G27           *ARAVAIPA CYN
RINCON MTNS    N/A       72  12  10 SW4G13            *NR MANNING CAMP
$$

AZZ509>511-280115-
LOCATION       SKY/WX    TMP DP  RH WIND       PRES   REMARKS
SAFFORD        PTSUNNY   92  15   6 MISG      29.88S
STRAY HORSE    N/A       69   8   9 W9G20             *
TRAIL CABIN    N/A       79  10   7 W6G18             *N OF GRANVILLE
BLACK HILLS    N/A       92  16   6 N5G14             *N OF FT THOMAS
DRY LAKE       N/A       73  23  15 SW5G14            *NATANES MTNS
NOON CREEK     N/A       85  11   6 S6G16             *PINALENO MTNS
COLUMBINE      N/A       62 -10   5 SE6G23            *PINALENO MTNS
GUTHRIE        N/A       79  13   8 SW12G28           *SW OF GUTHRIE
$$

AZZ502-503-513-280115-
LOCATION       SKY/WX    TMP DP  RH WIND       PRES   REMARKS
NOGALES        SUNNY     88  13   6 S14G21    29.98F
SELLS          N/A       93  20   7 SW6G18            *
SASABE         N/A       90  18   7 SW14G32           *ALTAR VLY
HOPKINS        N/A       78  12   8 W9G24             *SANTA RITA MTNS
CARR CYN       N/A       83  16   8 N4G11             *W OF HEREFORD
$$

AZZ507-508-512-280115-
LOCATION       SKY/WX    TMP DP  RH WIND       PRES   REMARKS
SIERRA VISTA   SUNNY     84   5   5 W18G25    30.03S
DOUGLAS        SUNNY     88  10   5 W16G22    29.97F
EMPIRE MTNS    N/A       86  11   6 SW8G24            *LAS CIENEGAS NCA
MULESHOE RANCH N/A       88  16   7 W11G21            *PRESERVE
HEADQUARTERS   N/A       85  -3   3 W6G20             *CHIRICAHUA MTNS
$$

.............................NOTES.............................
THIS IS AN AUTOMATED COLLECTIVE WITH MINIMAL QUALITY CONTROL.
PIMA CO DEQ SITES HAVE NONSTANDARD WIND SENSOR HEIGHTS.
PIMA CO DEQ SITES DO NOT REPORT WIND GUSTS.
* INDICATES WIND SENSORS LOCATED AT 20 FEET INSTEAD OF 33 FEET.
..............................KEY..............................
SKY/WX - SKY CONDITION/WEATHER
TMP    - TEMPERATURE IN FAHRENHEIT
DP     - DEWPOINT IN FAHRENHEIT
RH     - RELATIVE HUMIDITY IN PERCENT
WIND   - DIRECTION AND SPEED IN MILES PER HOUR (MPH)
VRB    - VARIABLE WIND DIRECTION
PRES   - MEAN SEA LEVEL PRESSURE IN INCHES OF MERCURY
         F - FALLING PRESSURE   R - RISING PRESSURE
         S - STEADY PRESSURE
VSB    - VISIBILITY IN MILES
HX     - HEAT INDEX IN FAHRENHEIT
WCI    - WIND CHILL INDEX IN FAHRENHEIT
N/A    - NOT AVAILABLE
AFB    - AIR FORCE BASE
         DAVIS-MONTHAN IS DAVIS-MONTHAN AIR FORCE BASE
CYN    - CANYON
MTNS   - MOUNTAINS
NCA    - NATIONAL CONSERVATION AREA
NR     - NEAR
VLY    - VALLEY
CONTL  - CONTINENTAL
PIMA CO DEQ - PIMA COUNTY DEPT OF ENVIRONMENTAL QUALITY



USA.gov is the U.S. government's official web portal to all federal, state and local government web resources and services.